Date String (YYYY-MM-DD hh:mm:ss) UTC,Instrument flags,Ambient pressure (hPa),Sample flow (lpm),Bypass flow (lpm),Sample temperature (°C),Ambient temperature (°C),ASC tube jacket temperature (°C),LED temperature (°C),Box temperature (°C),Sample RH (%),Span deviation,Mass concentration (μg/m³),Mass concentration (μg/m³),Mass concentration (μg/m³)
DateTimeUTC,F1_M11,P_M11,Q1_M11,Q2_M11,T1_M11,T2_M11,T3_M11,T4_M11,T5_M11,U1_M11,ZSPAN_M11,X0_M11,X2_M11,X1_M11
2022-11-30 23:00:00,,0823.2,4.99,0.00,24.9,23.5,00.0,33.8,26.6,08.1,0002.3,0020.12,0014.41,0013.92
2022-11-30 23:01:00,,0823.2,5.00,0.00,24.9,23.4,00.0,33.8,26.7,08.1,0002.2,0020.06,0014.43,0013.95
2022-11-30 23:02:00,,0823.2,5.01,0.00,24.9,23.4,00.0,33.8,26.7,08.2,0002.3,0020.06,0014.41,0013.95
2022-11-30 23:03:00,,0823.2,4.99,0.00,24.9,23.4,00.0,33.8,26.7,08.2,0001.9,0019.60,0014.35,0013.91
2022-11-30 23:04:00,,0823.1,4.99,0.00,24.9,23.4,00.0,33.8,26.7,08.2,0002.0,0018.56,0014.23,0013.78
2022-11-30 23:05:00,,0823.0,5.02,0.00,24.9,23.4,00.0,33.8,26.7,08.2,0002.0,0018.39,0014.08,0013.65
2022-11-30 23:06:00,,0823.0,5.00,0.00,24.9,23.4,00.0,33.8,26.7,08.2,0002.2,0018.40,0014.03,0013.58
2022-11-30 23:07:00,,0823.1,5.00,0.00,24.9,23.4,00.0,33.8,26.7,08.2,0002.7,0018.24,0014.05,0013.61
2022-11-30 23:08:00,,0823.1,5.01,0.00,24.9,23.4,00.0,33.8,26.7,08.2,0002.9,0017.99,0014.12,0013.66
2022-11-30 23:09:00,,0823.1,5.00,0.00,24.9,23.4,00.0,33.8,26.7,08.2,0000.2,0018.19,0014.27,0013.80
2022-11-30 23:10:00,,0823.1,5.00,0.00,24.9,23.4,00.0,33.8,26.7,08.1,0000.0,0018.31,0014.35,0013.90
2022-11-30 23:11:00,,0823.1,4.99,0.00,24.8,23.4,00.0,33.8,26.6,08.2,0001.1,0018.40,0014.40,0013.95
2022-11-30 23:12:00,,0822.9,5.00,0.00,24.8,23.4,00.0,33.8,26.6,08.2,0000.6,0018.85,0014.44,0014.00
2022-11-30 23:13:00,,0822.9,5.02,0.00,24.8,23.4,00.0,33.7,26.7,08.1,0000.0,0018.97,0014.48,0014.04
2022-11-30 23:14:00,,0823.0,4.98,0.00,24.8,23.4,00.0,33.7,26.7,08.1,0000.0,0019.52,0014.52,0014.10
2022-11-30 23:15:00,,0822.9,5.00,0.00,24.8,23.4,00.0,33.7,26.7,08.1,0000.0,0019.69,0014.61,0014.18
2022-11-30 23:16:00,,0823.0,5.02,0.00,24.8,23.4,00.0,33.7,26.7,08.1,0000.0,0019.87,0014.70,0014.25
2022-11-30 23:17:00,,0823.0,4.99,0.00,24.8,23.4,00.0,33.7,26.7,08.1,0000.0,0019.91,0014.73,0014.28
2022-11-30 23:18:00,,0822.9,5.00,0.00,24.8,23.4,00.0,33.7,26.7,08.1,0000.0,0019.98,0014.73,0014.26
2022-11-30 23:19:00,,0822.9,5.02,0.00,24.8,23.4,00.0,33.7,26.7,08.1,0000.0,0020.30,0014.72,0014.26
2022-11-30 23:20:00,,0823.1,4.98,0.00,24.8,23.4,00.0,33.7,26.6,08.1,0001.0,0020.07,0014.62,0014.20
2022-11-30 23:21:00,,0822.9,5.02,0.00,24.8,23.3,00.0,33.7,26.6,08.1,0000.4,0019.92,0014.55,0014.13
2022-11-30 23:22:00,,0822.9,5.01,0.00,24.8,23.3,00.0,33.7,26.6,08.1,0000.7,0019.77,0014.50,0014.10
2022-11-30 23:23:00,,0823.1,4.99,0.00,24.8,23.2,00.0,33.7,26.6,08.1,0000.0,0019.63,0014.48,0014.09
2022-11-30 23:24:00,,0823.2,4.99,0.00,24.7,23.2,00.0,33.7,26.5,08.1,0000.7,0019.98,0014.49,0014.10
2022-11-30 23:25:00,,0822.9,5.01,0.00,24.7,23.2,00.0,33.7,26.5,08.1,0000.7,0019.59,0014.48,0014.10
2022-11-30 23:26:00,,0823.0,4.99,0.00,24.7,23.1,00.0,33.7,26.5,08.1,0000.6,0019.36,0014.47,0014.08
2022-11-30 23:27:00,,0822.9,4.99,0.00,24.7,23.1,00.0,33.7,26.4,08.2,0000.5,0019.31,0014.45,0014.06
2022-11-30 23:28:00,,0822.8,5.02,0.00,24.6,23.0,00.0,33.6,26.4,08.2,0001.0,0019.71,0014.43,0014.05
2022-11-30 23:29:00,,0822.8,4.99,0.00,24.6,23.0,00.0,33.6,26.4,08.2,0000.7,0019.77,0014.38,0014.01
2022-11-30 23:30:00,,0822.9,5.01,0.00,24.6,23.0,00.0,33.6,26.4,08.2,0000.3,0019.37,0014.31,0013.96
2022-11-30 23:31:00,,0822.9,5.01,0.00,24.6,23.0,00.0,33.6,26.4,08.2,0000.6,0019.89,0014.24,0013.89
2022-11-30 23:32:00,,0822.9,4.98,0.00,24.6,23.0,00.0,33.6,26.4,08.3,0001.4,0020.09,0014.21,0013.84
2022-11-30 23:33:00,,0822.9,5.01,0.00,24.5,22.9,00.0,33.6,26.4,08.3,0000.1,0020.07,0014.14,0013.79
2022-11-30 23:34:00,,0822.8,5.00,0.00,24.5,22.9,00.0,33.6,26.4,08.3,0000.0,0019.72,0014.07,0013.73
2022-11-30 23:35:00,,0822.8,4.99,0.00,24.5,22.9,00.0,33.5,26.3,08.3,0000.0,0019.18,0014.00,0013.67
2022-11-30 23:36:00,,0822.8,5.01,0.00,24.5,22.8,00.0,33.5,26.3,08.3,0000.0,0019.16,0013.97,0013.63
2022-11-30 23:37:00,,0822.9,4.99,0.00,24.5,22.8,00.0,33.5,26.3,08.3,0000.5,0018.99,0013.84,0013.53
2022-11-30 23:38:00,,0822.9,4.99,0.00,24.5,22.8,00.0,33.5,26.3,08.3,0001.5,0018.85,0013.68,0013.37
2022-11-30 23:39:00,,0822.8,5.01,0.00,24.5,22.9,00.0,33.5,26.3,08.3,0001.7,0018.57,0013.53,0013.19
2022-11-30 23:40:00,,0822.8,4.99,0.00,24.5,22.9,00.0,33.5,26.3,08.3,0002.1,0018.10,0013.34,0013.02
2022-11-30 23:41:00,,0822.9,4.99,0.00,24.5,22.9,00.0,33.4,26.3,08.3,0002.2,0017.89,0013.20,0012.88
2022-11-30 23:42:00,,0822.8,5.02,0.00,24.5,22.9,00.0,33.4,26.3,08.3,0002.0,0017.36,0013.09,0012.74
2022-11-30 23:43:00,,0822.7,4.99,0.00,24.4,22.9,00.0,33.4,26.3,08.3,0001.1,0016.81,0012.93,0012.59
2022-11-30 23:44:00,,0822.8,4.99,0.00,24.4,22.9,00.0,33.4,26.3,08.3,0000.4,0016.64,0012.80,0012.43
2022-11-30 23:45:00,,0822.8,5.01,0.00,24.4,22.9,00.0,33.4,26.3,08.3,-000.1,0016.45,0012.64,0012.27
2022-11-30 23:46:00,,0822.8,5.00,0.00,24.4,22.9,00.0,33.4,26.3,08.3,-000.7,0016.26,0012.50,0012.14
2022-11-30 23:47:00,,0822.8,5.00,0.00,24.4,22.8,00.0,33.4,26.3,08.3,0000.0,0016.08,0012.36,0012.02
2022-11-30 23:48:00,,0822.8,4.99,0.00,24.4,22.8,00.0,33.4,26.3,08.3,0000.0,0016.19,0012.28,0011.93
2022-11-30 23:49:00,,0822.8,5.01,0.00,24.4,22.7,00.0,33.4,26.3,08.3,0000.0,0016.45,0012.28,0011.92
2022-11-30 23:50:00,,0822.7,5.01,0.00,24.4,22.7,00.0,33.3,26.2,08.3,0000.0,0016.18,0012.26,0011.93
2022-11-30 23:51:00,,0822.7,4.98,0.00,24.3,22.7,00.0,33.3,26.2,08.3,0000.0,0016.08,0012.28,0011.94
2022-11-30 23:52:00,,0822.7,5.01,0.00,24.3,22.7,00.0,33.3,26.2,08.3,0000.0,0016.20,0012.33,0011.95
2022-11-30 23:53:00,,0822.7,5.00,0.00,24.3,22.7,00.0,33.3,26.2,08.3,0000.0,0016.20,0012.33,0011.96
2022-11-30 23:54:00,,0822.6,4.99,0.00,24.3,22.7,00.0,33.3,26.2,08.3,0000.0,0016.14,0012.31,0011.96
2022-11-30 23:55:00,,0822.7,4.99,0.00,24.3,22.7,00.0,33.3,26.2,08.4,0000.0,0016.17,0012.33,0011.97
2022-11-30 23:56:00,,0822.7,5.02,0.00,24.3,22.5,00.0,33.3,26.1,08.4,0000.0,0016.37,0012.37,0011.98
2022-11-30 23:57:00,,0822.8,5.00,0.00,24.3,22.4,00.0,33.3,26.1,08.4,0000.0,0016.41,0012.37,0011.97
2022-11-30 23:58:00,,0822.8,4.99,0.00,24.2,22.3,00.0,33.2,26.0,08.4,0000.0,0016.47,0012.42,0011.99
2022-11-30 23:59:00,,0822.8,5.01,0.00,24.2,22.3,00.0,33.2,26.0,08.5,0000.0,0016.37,0012.48,0012.04
